| time (UTC) | temp F | wind direction | speed MPH | gust MPH | rain 1hr in | rain 24hr in | rain mn in | humidity % | barometer mb |
| 20260904172151 | 85 | 139 | 6.0 | 11.0 | 0.00 | 0.00 | 0.00 | 72 | 1015.7 |
| 20260904171644 | 85 | 165 | 6.0 | 10.0 | 0.00 | 0.00 | 0.00 | 72 | 1015.8 |
| 20260904171152 | 85 | 163 | 4.0 | 9.0 | 0.00 | 0.00 | 0.00 | 72 | 1015.8 |
| 20260904170658 | 84 | 163 | 4.0 | 10.0 | 0.00 | 0.00 | 0.00 | 73 | 1015.9 |
| 20260904170217 | 84 | 165 | 4.0 | 10.0 | 0.00 | 0.00 | 0.00 | 74 | 1015.8 |
| 20260904165624 | 84 | 148 | 6.0 | 11.0 | 0.00 | 0.00 | 0.00 | 73 | 1015.9 |
| 20260904165134 | 84 | 147 | 4.0 | 9.0 | 0.00 | 0.00 | 0.00 | 73 | 1015.9 |
| 20260904164654 | 84 | 184 | 3.0 | 7.0 | 0.00 | 0.00 | 0.00 | 74 | 1015.9 |
| 20260904164206 | 84 | 173 | 4.0 | 7.0 | 0.00 | 0.00 | 0.00 | 75 | 1015.9 |
| 20260904163709 | 84 | 148 | 2.0 | 7.0 | 0.00 | 0.00 | 0.00 | 77 | 1015.9 |
| 20260904163203 | 84 | 152 | 0.0 | 5.0 | 0.00 | 0.00 | 0.00 | 77 | 1015.9 |
| 20260904162715 | 84 | 151 | 0.0 | 7.0 | 0.00 | 0.00 | 0.00 | 76 | 1016.0 |
| 20260904162137 | 84 | 125 | 3.0 | 8.0 | 0.00 | 0.00 | 0.00 | 78 | 1016.2 |
| 20260904161649 | 83 | 119 | 1.0 | 7.0 | 0.00 | 0.00 | 0.00 | 78 | 1016.3 |
| 20260904161140 | 83 | 134 | 3.0 | 7.0 | 0.00 | 0.00 | 0.00 | 79 | 1016.2 |
| 20260904160140 | 82 | 161 | 5.0 | 9.0 | 0.00 | 0.00 | 0.00 | 81 | 1016.2 |
| 20260904155710 | 82 | 115 | 4.0 | 7.0 | 0.00 | 0.00 | 0.00 | 81 | 1016.2 |
| 20260904155215 | 82 | 116 | 3.0 | 8.0 | 0.00 | 0.00 | 0.00 | 82 | 1016.1 |
| 20260904154146 | 82 | 153 | 3.0 | 8.0 | 0.00 | 0.00 | 0.00 | 83 | 1016.0 |
| 20260904153703 | 81 | 137 | 4.0 | 8.0 | 0.00 | 0.00 | 0.00 | 83 | 1016.1 |
| 20260904153207 | 81 | 121 | 2.0 | 7.0 | 0.00 | 0.00 | 0.00 | 84 | 1015.9 |
| 20260904152721 | 81 | 149 | 4.0 | 7.0 | 0.00 | 0.00 | 0.00 | 85 | 1015.9 |
| 20260904152127 | 81 | 164 | 5.0 | 9.0 | 0.00 | 0.00 | 0.00 | 85 | 1015.8 |
| 20260904151650 | 80 | 194 | 2.0 | 10.0 | 0.00 | 0.00 | 0.00 | 86 | 1015.8 |
| 20260904150633 | 80 | 146 | 4.0 | 7.0 | 0.00 | 0.00 | 0.00 | 87 | 1015.8 |
| 20260904150156 | 80 | 143 | 3.0 | 7.0 | 0.00 | 0.00 | 0.00 | 88 | 1015.9 |
| 20260904145709 | 80 | 144 | 3.0 | 6.0 | 0.00 | 0.00 | 0.00 | 88 | 1015.9 |
| 20260904145232 | 80 | 152 | 0.0 | 9.0 | 0.00 | 0.00 | 0.00 | 89 | 1015.8 |
| 20260904144726 | 79 | 148 | 4.0 | 9.0 | 0.00 | 0.00 | 0.00 | 89 | 1015.7 |
| 20260904144200 | 79 | 136 | 4.0 | 6.0 | 0.00 | 0.00 | 0.00 | 89 | 1015.7 |
| 20260904143710 | 79 | 141 | 2.0 | 6.0 | 0.00 | 0.00 | 0.00 | 90 | 1015.7 |
| 20260904143227 | 79 | 144 | 0.0 | 10.0 | 0.00 | 0.00 | 0.00 | 90 | 1015.8 |
| 20260904142708 | 79 | 176 | 3.0 | 10.0 | 0.00 | 0.00 | 0.00 | 90 | 1015.7 |
| 20260904142202 | 79 | 154 | 4.0 | 9.0 | 0.00 | 0.00 | 0.00 | 90 | 1015.7 |
| 20260904141709 | 79 | 182 | 5.0 | 8.0 | 0.00 | 0.00 | 0.00 | 90 | 1015.6 |
| 20260904141200 | 79 | 151 | 3.0 | 9.0 | 0.00 | 0.00 | 0.00 | 90 | 1015.6 |
| 20260904140720 | 79 | 126 | 6.0 | 9.0 | 0.00 | 0.00 | 0.00 | 90 | 1015.6 |
| 20260904140143 | 79 | 140 | 5.0 | 10.0 | 0.00 | 0.00 | 0.00 | 90 | 1015.5 |
| 20260904135655 | 78 | 164 | 6.0 | 10.0 | 0.00 | 0.00 | 0.00 | 90 | 1015.4 |
| 20260904135220 | 78 | 144 | 5.0 | 10.0 | 0.00 | 0.00 | 0.00 | 90 | 1015.4 |
| 20260904134734 | 78 | 130 | 5.0 | 12.0 | 0.00 | 0.00 | 0.00 | 90 | 1015.3 |
| 20260904134125 | 78 | 129 | 5.0 | 11.0 | 0.00 | 0.00 | 0.00 | 90 | 1015.2 |
| 20260904133650 | 78 | 155 | 6.0 | 11.0 | 0.00 | 0.00 | 0.00 | 90 | 1015.3 |
| 20260904133205 | 78 | 144 | 2.0 | 8.0 | 0.00 | 0.00 | 0.00 | 91 | 1015.3 |
| 20260904132730 | 78 | 144 | 5.0 | 11.0 | 0.00 | 0.00 | 0.00 | 90 | 1015.2 |
| 20260904132203 | 78 | 121 | 7.0 | 11.0 | 0.00 | 0.00 | 0.00 | 90 | 1015.1 |
| 20260904131700 | 78 | 157 | 6.0 | 9.0 | 0.00 | 0.00 | 0.00 | 90 | 1015.2 |
| 20260904131212 | 78 | 121 | 4.0 | 9.0 | 0.00 | 0.00 | 0.00 | 90 | 1015.2 |
| 20260904130718 | 78 | 167 | 4.0 | 8.0 | 0.00 | 0.00 | 0.00 | 90 | 1015.2 |
| 20260904130215 | 78 | 136 | 5.0 | 9.0 | 0.00 | 0.00 | 0.00 | 90 | 1015.1 |
| 20260904125623 | 78 | 95 | 5.0 | 8.0 | 0.00 | 0.00 | 0.00 | 90 | 1015.0 |
| 20260904125149 | 78 | 115 | 3.0 | 9.0 | 0.00 | 0.00 | 0.00 | 90 | 1014.8 |
| 20260904124704 | 78 | 82 | 5.0 | 10.0 | 0.00 | 0.00 | 0.00 | 90 | 1014.8 |
| 20260904124220 | 78 | 124 | 3.0 | 10.0 | 0.00 | 0.00 | 0.00 | 90 | 1014.7 |
| 20260904123634 | 78 | 126 | 6.0 | 8.0 | 0.00 | 0.00 | 0.00 | 89 | 1014.7 |
| 20260904123126 | 78 | 105 | 4.0 | 8.0 | 0.00 | 0.00 | 0.00 | 89 | 1014.8 |
| 20260904122653 | 78 | 125 | 4.0 | 8.0 | 0.00 | 0.00 | 0.00 | 89 | 1014.7 |
| 20260904121722 | 78 | 145 | 4.0 | 10.0 | 0.00 | 0.00 | 0.00 | 89 | 1014.6 |
| 20260904121216 | 78 | 104 | 6.0 | 8.0 | 0.00 | 0.00 | 0.00 | 89 | 1014.6 |
| 20260904120626 | 78 | 115 | 4.0 | 8.0 | 0.00 | 0.00 | 0.00 | 88 | 1014.5 |
| 20260904120236 | 79 | 134 | 6.0 | 9.0 | 0.00 | 0.00 | 0.00 | 88 | 1014.4 |
| 20260904115725 | 79 | 128 | 4.0 | 9.0 | 0.00 | 0.00 | 0.00 | 88 | 1014.4 |
| 20260904115216 | 79 | 95 | 4.0 | 8.0 | 0.00 | 0.00 | 0.00 | 87 | 1014.3 |
| 20260904114741 | 79 | 131 | 5.0 | 9.0 | 0.00 | 0.00 | 0.00 | 87 | 1014.4 |
| 20260904114137 | 79 | 128 | 5.0 | 11.0 | 0.00 | 0.00 | 0.00 | 87 | 1014.2 |
| 20260904113645 | 79 | 133 | 5.0 | 9.0 | 0.00 | 0.00 | 0.00 | 87 | 1014.1 |
| 20260904112637 | 79 | 186 | 4.0 | 10.0 | 0.00 | 0.00 | 0.00 | 86 | 1014.0 |
| 20260904112134 | 79 | 160 | 4.0 | 12.0 | 0.00 | 0.00 | 0.00 | 86 | 1013.9 |
| 20260904111634 | 79 | 179 | 4.0 | 9.0 | 0.00 | 0.00 | 0.00 | 86 | 1014.1 |
| 20260904111134 | 79 | 150 | 5.0 | 8.0 | 0.00 | 0.00 | 0.00 | 86 | 1014.1 |
| 20260904110652 | 79 | 176 | 4.0 | 11.0 | 0.00 | 0.00 | 0.00 | 86 | 1014.2 |
| 20260904110208 | 79 | 132 | 7.0 | 11.0 | 0.00 | 0.00 | 0.00 | 86 | 1014.3 |
| 20260904105138 | 79 | 148 | 5.0 | 8.0 | 0.00 | 0.00 | 0.00 | 86 | 1014.1 |
| 20260904104656 | 79 | 175 | 4.0 | 7.0 | 0.00 | 0.00 | 0.00 | 87 | 1014.0 |
| 20260904104159 | 79 | 167 | 5.0 | 7.0 | 0.00 | 0.00 | 0.00 | 87 | 1014.0 |
| 20260904103701 | 79 | 182 | 2.0 | 7.0 | 0.00 | 0.00 | 0.00 | 87 | 1014.0 |
| 20260904103150 | 79 | 162 | 4.0 | 9.0 | 0.00 | 0.00 | 0.00 | 87 | 1014.1 |
| 20260904102713 | 79 | 207 | 6.0 | 10.0 | 0.00 | 0.00 | 0.00 | 87 | 1014.0 |
| 20260904102129 | 79 | 166 | 4.0 | 10.0 | 0.00 | 0.00 | 0.00 | 87 | 1013.9 |
| 20260904101654 | 79 | 182 | 3.0 | 10.0 | 0.00 | 0.00 | 0.00 | 87 | 1013.9 |
| 20260904100632 | 78 | 216 | 4.0 | 10.0 | 0.00 | 0.00 | 0.00 | 87 | 1014.0 |
| 20260904100157 | 78 | 173 | 5.0 | 10.0 | 0.00 | 0.00 | 0.00 | 88 | 1014.0 |
| 20260904095713 | 78 | 158 | 5.0 | 9.0 | 0.00 | 0.00 | 0.00 | 88 | 1013.9 |
| 20260904095222 | 78 | 170 | 2.0 | 6.0 | 0.00 | 0.00 | 0.00 | 88 | 1013.8 |
| 20260904094718 | 78 | 160 | 3.0 | 6.0 | 0.00 | 0.00 | 0.00 | 88 | 1014.0 |
| 20260904094220 | 78 | 183 | 3.0 | 6.0 | 0.00 | 0.00 | 0.00 | 88 | 1014.1 |
| 20260904093718 | 78 | 177 | 2.0 | 7.0 | 0.00 | 0.00 | 0.00 | 88 | 1013.9 |
| 20260904093212 | 78 | 184 | 4.0 | 7.0 | 0.00 | 0.00 | 0.00 | 88 | 1013.9 |
| 20260904092626 | 78 | 155 | 4.0 | 7.0 | 0.00 | 0.00 | 0.00 | 88 | 1013.8 |
| 20260904092152 | 78 | 151 | 3.0 | 7.0 | 0.00 | 0.00 | 0.00 | 88 | 1013.8 |
| 20260904091150 | 78 | 167 | 3.0 | 5.0 | 0.00 | 0.00 | 0.00 | 88 | 1013.9 |
| 20260904090704 | 78 | 184 | 2.0 | 6.0 | 0.00 | 0.00 | 0.00 | 88 | 1014.0 |
| 20260904090215 | 78 | 180 | 2.0 | 6.0 | 0.00 | 0.00 | 0.00 | 87 | 1013.9 |
| 20260904085630 | 78 | 148 | 3.0 | 6.0 | 0.00 | 0.00 | 0.00 | 87 | 1014.0 |
| 20260904085147 | 78 | 192 | 2.0 | 6.0 | 0.00 | 0.00 | 0.00 | 87 | 1013.9 |
| 20260904084639 | 78 | 198 | 2.0 | 6.0 | 0.00 | 0.00 | 0.00 | 87 | 1013.9 |
| 20260904084210 | 78 | 171 | 2.0 | 7.0 | 0.00 | 0.00 | 0.00 | 87 | 1013.8 |
| 20260904083721 | 79 | 167 | 4.0 | 7.0 | 0.00 | 0.00 | 0.00 | 86 | 1013.8 |
| 20260904083138 | 79 | 142 | 2.0 | 6.0 | 0.00 | 0.00 | 0.00 | 86 | 1013.8 |
| 20260904082655 | 79 | 165 | 4.0 | 6.0 | 0.00 | 0.00 | 0.00 | 86 | 1013.9 |
| 20260904082219 | 79 | 149 | 3.0 | 6.0 | 0.00 | 0.00 | 0.00 | 86 | 1014.0 |
| 20260904081730 | 79 | 159 | 4.0 | 9.0 | 0.00 | 0.00 | 0.00 | 86 | 1014.0 |
| 20260904081211 | 79 | 165 | 4.0 | 9.0 | 0.00 | 0.00 | 0.00 | 85 | 1014.1 |
| 20260904080706 | 79 | 150 | 6.0 | 8.0 | 0.00 | 0.00 | 0.00 | 85 | 1014.1 |
| 20260904075634 | 79 | 173 | 4.0 | 10.0 | 0.00 | 0.00 | 0.00 | 85 | 1014.1 |
| 20260904075145 | 79 | 167 | 5.0 | 10.0 | 0.00 | 0.00 | 0.00 | 85 | 1014.1 |
| 20260904074222 | 80 | 167 | 6.0 | 11.0 | 0.00 | 0.00 | 0.00 | 84 | 1014.2 |
| 20260904073631 | 80 | 175 | 6.0 | 12.0 | 0.00 | 0.00 | 0.00 | 84 | 1014.1 |
| 20260904073150 | 80 | 163 | 5.0 | 12.0 | 0.00 | 0.00 | 0.00 | 84 | 1014.2 |
| 20260904072137 | 80 | 178 | 4.0 | 10.0 | 0.00 | 0.00 | 0.00 | 83 | 1014.2 |
| 20260904071720 | 80 | 160 | 6.0 | 14.0 | 0.00 | 0.00 | 0.00 | 83 | 1014.3 |
| 20260904071213 | 80 | 146 | 7.0 | 14.0 | 0.00 | 0.00 | 0.00 | 83 | 1014.4 |
| 20260904070713 | 80 | 166 | 8.0 | 13.0 | 0.00 | 0.00 | 0.00 | 83 | 1014.4 |
| 20260904070151 | 80 | 136 | 7.0 | 13.0 | 0.00 | 0.00 | 0.00 | 83 | 1014.5 |
| 20260904065626 | 80 | 139 | 5.0 | 11.0 | 0.00 | 0.00 | 0.00 | 83 | 1014.5 |
| 20260904065132 | 80 | 170 | 5.0 | 8.0 | 0.00 | 0.00 | 0.00 | 83 | 1014.5 |
| 20260904064641 | 80 | 166 | 4.0 | 11.0 | 0.00 | 0.00 | 0.00 | 83 | 1014.5 |
| 20260904064149 | 80 | 190 | 6.0 | 11.0 | 0.00 | 0.00 | 0.00 | 83 | 1014.6 |
| 20260904063627 | 80 | 150 | 6.0 | 11.0 | 0.00 | 0.00 | 0.00 | 84 | 1014.6 |
| 20260904063135 | 80 | 173 | 5.0 | 13.0 | 0.00 | 0.00 | 0.00 | 84 | 1014.6 |
| 20260904062643 | 80 | 195 | 7.0 | 12.0 | 0.00 | 0.00 | 0.00 | 84 | 1014.5 |
| 20260904062137 | 80 | 175 | 5.0 | 12.0 | 0.00 | 0.00 | 0.00 | 83 | 1014.5 |
| 20260904061625 | 80 | 134 | 4.0 | 12.0 | 0.00 | 0.00 | 0.00 | 83 | 1014.5 |
| 20260904061132 | 80 | 196 | 5.0 | 10.0 | 0.00 | 0.00 | 0.00 | 83 | 1014.5 |
| 20260904060641 | 80 | 163 | 5.0 | 11.0 | 0.00 | 0.00 | 0.00 | 83 | 1014.5 |
| 20260904060139 | 80 | 135 | 6.0 | 11.0 | 0.00 | 0.00 | 0.00 | 83 | 1014.5 |
| 20260904055627 | 80 | 180 | 5.0 | 11.0 | 0.00 | 0.00 | 0.00 | 82 | 1014.5 |
| 20260904055134 | 80 | 141 | 7.0 | 11.0 | 0.00 | 0.00 | 0.00 | 82 | 1014.5 |
| 20260904054633 | 80 | 179 | 6.0 | 10.0 | 0.00 | 0.00 | 0.00 | 82 | 1014.5 |
| 20260904054134 | 80 | 177 | 7.0 | 12.0 | 0.00 | 0.00 | 0.00 | 82 | 1014.5 |
| 20260904053623 | 80 | 145 | 5.0 | 15.0 | 0.00 | 0.00 | 0.00 | 81 | 1014.4 |
| 20260904053146 | 81 | 170 | 6.0 | 15.0 | 0.00 | 0.00 | 0.00 | 80 | 1014.4 |
| 20260904052626 | 81 | 148 | 9.0 | 13.0 | 0.00 | 0.00 | 0.00 | 80 | 1014.3 |
| 20260904052150 | 81 | 189 | 7.0 | 15.0 | 0.00 | 0.00 | 0.00 | 80 | 1014.3 |
| 20260904051637 | 81 | 143 | 7.0 | 15.0 | 0.00 | 0.00 | 0.00 | 79 | 1014.2 |
| 20260904051125 | 81 | 153 | 8.0 | 18.0 | 0.00 | 0.00 | 0.00 | 79 | 1014.2 |
| 20260904050624 | 81 | 148 | 8.0 | 18.0 | 0.00 | 0.00 | 0.00 | 78 | 1014.1 |
| 20260904050127 | 81 | 148 | 8.0 | 15.0 | 0.00 | 0.00 | 0.00 | 78 | 1014.2 |
| 20260904045630 | 82 | 205 | 6.0 | 15.0 | 0.00 | 0.00 | 0.00 | 77 | 1014.2 |
| 20260904045233 | 82 | 160 | 8.0 | 15.0 | 0.00 | 0.00 | 0.00 | 77 | 1014.2 |
| 20260904044709 | 82 | 165 | 8.0 | 16.0 | 0.00 | 0.00 | 0.00 | 77 | 1014.2 |
| 20260904044159 | 82 | 88 | 10.0 | 16.0 | 0.00 | 0.00 | 0.00 | 76 | 1014.1 |
| 20260904043723 | 82 | 136 | 7.0 | 18.0 | 0.00 | 0.00 | 0.00 | 76 | 1014.1 |
| 20260904043203 | 82 | 136 | 10.0 | 18.0 | 0.00 | 0.00 | 0.00 | 76 | 1014.1 |
| 20260904042659 | 82 | 165 | 7.0 | 16.0 | 0.00 | 0.00 | 0.00 | 75 | 1014.1 |
| 20260904042211 | 83 | 153 | 6.0 | 13.0 | 0.00 | 0.00 | 0.00 | 74 | 1014.1 |
| 20260904041718 | 83 | 149 | 8.0 | 13.0 | 0.00 | 0.00 | 0.00 | 74 | 1014.1 |
| 20260904041213 | 83 | 138 | 6.0 | 13.0 | 0.00 | 0.00 | 0.00 | 73 | 1014.0 |
| 20260904040157 | 83 | 135 | 8.0 | 19.0 | 0.00 | 0.00 | 0.00 | 72 | 1014.2 |
| 20260904035712 | 83 | 138 | 8.0 | 19.0 | 0.00 | 0.00 | 0.00 | 71 | 1014.1 |
| 20260904035237 | 84 | 132 | 9.0 | 15.0 | 0.00 | 0.00 | 0.00 | 71 | 1014.1 |
| 20260904034654 | 84 | 160 | 5.0 | 14.0 | 0.00 | 0.00 | 0.00 | 70 | 1014.0 |
| 20260904034217 | 84 | 144 | 7.0 | 13.0 | 0.00 | 0.00 | 0.00 | 69 | 1013.8 |
| 20260904033139 | 84 | 130 | 8.0 | 12.0 | 0.00 | 0.00 | 0.00 | 68 | 1013.7 |
| 20260904032703 | 84 | 146 | 6.0 | 11.0 | 0.00 | 0.00 | 0.00 | 68 | 1013.6 |
| 20260904032219 | 84 | 150 | 7.0 | 13.0 | 0.00 | 0.00 | 0.00 | 68 | 1013.5 |
| 20260904031145 | 84 | 132 | 9.0 | 14.0 | 0.00 | 0.00 | 0.00 | 67 | 1013.5 |
| 20260904030636 | 85 | 138 | 8.0 | 13.0 | 0.00 | 0.00 | 0.00 | 67 | 1013.4 |
| 20260904030154 | 85 | 170 | 6.0 | 13.0 | 0.00 | 0.00 | 0.00 | 67 | 1013.3 |
| 20260904025704 | 85 | 120 | 7.0 | 12.0 | 0.00 | 0.00 | 0.00 | 67 | 1013.3 |
| 20260904025217 | 85 | 111 | 6.0 | 12.0 | 0.00 | 0.00 | 0.00 | 67 | 1013.2 |
| 20260904024730 | 85 | 126 | 7.0 | 15.0 | 0.00 | 0.00 | 0.00 | 66 | 1013.1 |
| 20260904024209 | 85 | 124 | 8.0 | 15.0 | 0.00 | 0.00 | 0.00 | 66 | 1013.1 |
| 20260904023722 | 85 | 76 | 8.0 | 15.0 | 0.00 | 0.00 | 0.00 | 66 | 1013.0 |
| 20260904023202 | 85 | 144 | 8.0 | 15.0 | 0.00 | 0.00 | 0.00 | 66 | 1013.0 |
| 20260904022623 | 85 | 119 | 6.0 | 12.0 | 0.00 | 0.00 | 0.00 | 65 | 1012.9 |
| 20260904022222 | 85 | 132 | 9.0 | 12.0 | 0.00 | 0.00 | 0.00 | 65 | 1012.9 |
| 20260904021628 | 86 | 119 | 4.0 | 11.0 | 0.00 | 0.00 | 0.00 | 65 | 1012.8 |
| 20260904021127 | 86 | 141 | 7.0 | 11.0 | 0.00 | 0.00 | 0.00 | 64 | 1012.6 |
| 20260904020732 | 86 | 139 | 7.0 | 12.0 | 0.00 | 0.00 | 0.00 | 64 | 1012.6 |
| 20260904020132 | 86 | 107 | 7.0 | 20.0 | 0.00 | 0.00 | 0.00 | 63 | 1012.6 |
| 20260904015648 | 86 | 75 | 9.0 | 20.0 | 0.00 | 0.00 | 0.00 | 63 | 1012.5 |
| 20260904015146 | 86 | 92 | 8.0 | 13.0 | 0.00 | 0.00 | 0.00 | 62 | 1012.5 |
| 20260904014703 | 86 | 146 | 5.0 | 16.0 | 0.00 | 0.00 | 0.00 | 62 | 1012.3 |
| 20260904014214 | 87 | 128 | 8.0 | 18.0 | 0.00 | 0.00 | 0.00 | 61 | 1012.3 |
| 20260904013702 | 87 | 111 | 9.0 | 18.0 | 0.00 | 0.00 | 0.00 | 61 | 1012.4 |
| 20260904013220 | 87 | 116 | 10.0 | 21.0 | 0.00 | 0.00 | 0.00 | 60 | 1012.3 |
| 20260904012637 | 87 | 121 | 10.0 | 21.0 | 0.00 | 0.00 | 0.00 | 60 | 1012.1 |
| 20260904012146 | 87 | 119 | 9.0 | 19.0 | 0.00 | 0.00 | 0.00 | 61 | 1012.1 |
| 20260904011136 | 87 | 142 | 9.0 | 16.0 | 0.00 | 0.00 | 0.00 | 63 | 1012.1 |
| 20260904010644 | 87 | 169 | 5.0 | 11.0 | 0.00 | 0.00 | 0.00 | 64 | 1011.9 |
| 20260904010207 | 87 | 101 | 6.0 | 15.0 | 0.00 | 0.00 | 0.00 | 63 | 1011.8 |
| 20260904005704 | 87 | 109 | 9.0 | 18.0 | 0.00 | 0.00 | 0.00 | 63 | 1011.8 |
| 20260904005125 | 87 | 94 | 9.0 | 20.0 | 0.00 | 0.00 | 0.00 | 63 | 1011.8 |
| 20260904004642 | 88 | 90 | 12.0 | 20.0 | 0.00 | 0.00 | 0.00 | 62 | 1011.9 |
| 20260904004135 | 88 | 76 | 10.0 | 20.0 | 0.00 | 0.00 | 0.00 | 61 | 1011.8 |
| 20260904003656 | 88 | 93 | 8.0 | 19.0 | 0.00 | 0.00 | 0.00 | 61 | 1011.6 |
| 20260904002638 | 89 | 64 | 11.0 | 22.0 | 0.00 | 0.00 | 0.00 | 59 | 1011.5 |
| 20260904002200 | 89 | 57 | 12.0 | 23.0 | 0.00 | 0.00 | 0.00 | 58 | 1011.4 |
| 20260904001717 | 90 | 105 | 9.0 | 26.0 | 0.00 | 0.00 | 0.00 | 56 | 1011.4 |
| 20260904001129 | 91 | 104 | 14.0 | 25.0 | 0.00 | 0.00 | 0.00 | 54 | 1011.4 |
| 20260904000655 | 92 | 23 | 11.0 | 20.0 | 0.00 | 0.00 | 0.00 | 52 | 1011.3 |
| 20260904000211 | 93 | 82 | 6.0 | 20.0 | 0.00 | 0.00 | 0.00 | 51 | 1011.2 |
| 20260903235219 | 94 | 130 | 9.0 | 18.0 | 0.00 | 0.00 | 0.00 | 48 | 1011.2 |
| 20260903234633 | 94 | 98 | 10.0 | 19.0 | 0.00 | 0.00 | 0.00 | 48 | 1011.1 |
| 20260903234149 | 94 | 122 | 8.0 | 18.0 | 0.00 | 0.00 | 0.00 | 47 | 1011.1 |
| 20260903233650 | 94 | 51 | 9.0 | 18.0 | 0.00 | 0.00 | 0.00 | 46 | 1011.1 |
| 20260903233144 | 94 | 85 | 9.0 | 16.0 | 0.00 | 0.00 | 0.00 | 46 | 1011.1 |
| 20260903232656 | 94 | 86 | 12.0 | 16.0 | 0.00 | 0.00 | 0.00 | 47 | 1011.0 |
| 20260903232216 | 94 | 130 | 8.0 | 18.0 | 0.00 | 0.00 | 0.00 | 48 | 1011.0 |
| 20260903231630 | 94 | 125 | 10.0 | 19.0 | 0.00 | 0.00 | 0.00 | 47 | 1011.0 |
| 20260903231142 | 95 | 77 | 11.0 | 20.0 | 0.00 | 0.00 | 0.00 | 47 | 1010.9 |
| 20260903230706 | 95 | 88 | 9.0 | 20.0 | 0.00 | 0.00 | 0.00 | 46 | 1010.9 |
| 20260903230201 | 95 | 90 | 10.0 | 19.0 | 0.00 | 0.00 | 0.00 | 46 | 1010.9 |
| 20260903225723 | 95 | 128 | 9.0 | 19.0 | 0.00 | 0.00 | 0.00 | 46 | 1010.9 |
| 20260903225151 | 96 | 109 | 12.0 | 19.0 | 0.00 | 0.00 | 0.00 | 45 | 1010.9 |
| 20260903224215 | 96 | 125 | 8.0 | 18.0 | 0.00 | 0.00 | 0.00 | 46 | 1010.7 |
| 20260903223710 | 96 | 68 | 8.0 | 20.0 | 0.00 | 0.00 | 0.00 | 46 | 1010.7 |
| 20260903223211 | 96 | 71 | 9.0 | 20.0 | 0.00 | 0.00 | 0.00 | 45 | 1010.7 |
| 20260903222722 | 97 | 124 | 12.0 | 20.0 | 0.00 | 0.00 | 0.00 | 44 | 1010.7 |
| 20260903222208 | 98 | 82 | 9.0 | 14.0 | 0.00 | 0.00 | 0.00 | 44 | 1010.6 |
| 20260903221719 | 98 | 119 | 9.0 | 15.0 | 0.00 | 0.00 | 0.00 | 43 | 1010.7 |
| 20260903221153 | 98 | 166 | 9.0 | 15.0 | 0.00 | 0.00 | 0.00 | 41 | 1010.6 |
| 20260903220124 | 98 | 103 | 6.0 | 11.0 | 0.00 | 0.00 | 0.00 | 42 | 1010.6 |
| 20260903215642 | 98 | 124 | 6.0 | 14.0 | 0.00 | 0.00 | 0.00 | 43 | 1010.7 |
| 20260903215156 | 98 | 94 | 9.0 | 14.0 | 0.00 | 0.00 | 0.00 | 42 | 1010.8 |
| 20260903214718 | 98 | 103 | 7.0 | 15.0 | 0.00 | 0.00 | 0.00 | 42 | 1010.9 |
| 20260903214128 | 98 | 134 | 9.0 | 15.0 | 0.00 | 0.00 | 0.00 | 42 | 1010.8 |
| 20260903213643 | 99 | 176 | 5.0 | 12.0 | 0.00 | 0.00 | 0.00 | 42 | 1010.8 |
| 20260903212630 | 99 | 263 | 4.0 | 9.0 | 0.00 | 0.00 | 0.00 | 41 | 1010.9 |
| 20260903212144 | 99 | 53 | 5.0 | 11.0 | 0.00 | 0.00 | 0.00 | 39 | 1011.0 |
| 20260903211654 | 99 | 104 | 7.0 | 11.0 | 0.00 | 0.00 | 0.00 | 40 | 1011.1 |
| 20260903211212 | 99 | 81 | 3.0 | 8.0 | 0.00 | 0.00 | 0.00 | 40 | 1011.2 |
| 20260903210712 | 99 | 32 | 4.0 | 9.0 | 0.00 | 0.00 | 0.00 | 40 | 1011.2 |
| 20260903210151 | 99 | 56 | 3.0 | 7.0 | 0.00 | 0.00 | 0.00 | 42 | 1011.3 |
| 20260903205704 | 98 | 28 | 2.0 | 10.0 | 0.00 | 0.00 | 0.00 | 43 | 1011.3 |
| 20260903205125 | 98 | 98 | 7.0 | 10.0 | 0.00 | 0.00 | 0.00 | 42 | 1011.4 |
| 20260903204742 | 98 | 115 | 7.0 | 11.0 | 0.00 | 0.00 | 0.00 | 42 | 1011.4 |
| 20260903204134 | 98 | 115 | 4.0 | 8.0 | 0.00 | 0.00 | 0.00 | 45 | 1011.5 |
| 20260903203657 | 98 | 111 | 5.0 | 8.0 | 0.00 | 0.00 | 0.00 | 44 | 1011.6 |
| 20260903202637 | 98 | 196 | 4.0 | 11.0 | 0.00 | 0.00 | 0.00 | 45 | 1011.9 |
| 20260903202200 | 98 | 86 | 4.0 | 11.0 | 0.00 | 0.00 | 0.00 | 45 | 1011.9 |
| 20260903201717 | 98 | 115 | 6.0 | 11.0 | 0.00 | 0.00 | 0.00 | 45 | 1012.0 |
| 20260903201214 | 98 | 123 | 5.0 | 9.0 | 0.00 | 0.00 | 0.00 | 44 | 1012.0 |
| 20260903200719 | 98 | 114 | 4.0 | 8.0 | 0.00 | 0.00 | 0.00 | 47 | 1012.0 |
| 20260903200217 | 98 | 175 | 3.0 | 7.0 | 0.00 | 0.00 | 0.00 | 45 | 1012.0 |
| 20260903195722 | 98 | 80 | 3.0 | 7.0 | 0.00 | 0.00 | 0.00 | 45 | 1012.1 |
| 20260903195133 | 96 | 144 | 1.0 | 10.0 | 0.00 | 0.00 | 0.00 | 45 | 1012.1 |
| 20260903194644 | 96 | 103 | 4.0 | 10.0 | 0.00 | 0.00 | 0.00 | 47 | 1012.2 |
| 20260903193638 | 96 | 53 | 4.0 | 9.0 | 0.00 | 0.00 | 0.00 | 46 | 1012.3 |
| 20260903193153 | 96 | 164 | 4.0 | 12.0 | 0.00 | 0.00 | 0.00 | 47 | 1012.3 |
| 20260903192144 | 95 | 202 | 8.0 | 15.0 | 0.00 | 0.00 | 0.00 | 48 | 1012.5 |
| 20260903191703 | 96 | 163 | 3.0 | 11.0 | 0.00 | 0.00 | 0.00 | 48 | 1012.6 |
| 20260903190638 | 95 | 187 | 5.0 | 11.0 | 0.00 | 0.00 | 0.00 | 48 | 1012.8 |
| 20260903190205 | 95 | 215 | 3.0 | 10.0 | 0.00 | 0.00 | 0.00 | 50 | 1012.8 |
| 20260903185715 | 95 | 197 | 4.0 | 10.0 | 0.00 | 0.00 | 0.00 | 49 | 1013.1 |
| 20260903184633 | 95 | 196 | 7.0 | 11.0 | 0.00 | 0.00 | 0.00 | 49 | 1013.3 |
| 20260903184157 | 94 | 117 | 6.0 | 11.0 | 0.00 | 0.00 | 0.00 | 49 | 1013.4 |
| 20260903183714 | 94 | 194 | 5.0 | 11.0 | 0.00 | 0.00 | 0.00 | 52 | 1013.5 |
| 20260903183137 | 93 | 140 | 5.0 | 11.0 | 0.00 | 0.00 | 0.00 | 51 | 1013.5 |
| 20260903182738 | 93 | 234 | 4.0 | 11.0 | 0.00 | 0.00 | 0.00 | 52 | 1013.5 |
| 20260903182208 | 93 | 202 | 6.0 | 11.0 | 0.00 | 0.00 | 0.00 | 51 | 1013.7 |
| 20260903181700 | 93 | 136 | 7.0 | 12.0 | 0.00 | 0.00 | 0.00 | 53 | 1013.9 |
| 20260903181212 | 93 | 160 | 6.0 | 12.0 | 0.00 | 0.00 | 0.00 | 53 | 1013.8 |
| 20260903180706 | 92 | 142 | 6.0 | 13.0 | 0.00 | 0.00 | 0.00 | 54 | 1013.9 |
| 20260903180212 | 92 | 91 | 6.0 | 13.0 | 0.00 | 0.00 | 0.00 | 57 | 1013.9 |
| 20260903175715 | 92 | 152 | 7.0 | 16.0 | 0.00 | 0.00 | 0.00 | 55 | 1014.0 |
| 20260903175214 | 92 | 157 | 6.0 | 11.0 | 0.00 | 0.00 | 0.00 | 54 | 1014.0 |
| 20260903174708 | 92 | 224 | 5.0 | 16.0 | 0.00 | 0.00 | 0.00 | 55 | 1014.0 |
| 20260903174151 | 92 | 94 | 8.0 | 16.0 | 0.00 | 0.00 | 0.00 | 56 | 1014.1 |
| 20260903173702 | 92 | 216 | 6.0 | 12.0 | 0.00 | 0.00 | 0.00 | 57 | 1014.2 |
| 20260903173210 | 91 | 196 | 6.0 | 13.0 | 0.00 | 0.00 | 0.00 | 59 | 1014.3 |
| 20260903172631 | 91 | 194 | 8.0 | 13.0 | 0.00 | 0.00 | 0.00 | 58 | 1014.3 |